Regional Weather Roundup
Issued by NWS

Home | Current Version | Previous Version | Graphics & Text | Print | Product List | Glossary Off
Versions: 1 2 3 4 5 6 7 8 9 10 11 12 13 14 15 16 17 18 19 20 21 22 23 24 25 26 27 28 29 30 31 32 33 34 35 36 37 38 39 40 41 42 43 44 45 46 47 48 49 50

000
ASUS43 KTOP 230359
RWRKS

WEATHER ROUNDUP FOR KANSAS
NATIONAL WEATHER SERVICE GOODLAND KS
1100 PM CDT TUE APR 22 2014

NOTE:  "FAIR" INDICATES FEW OR NO CLOUDS BELOW 12,000 FEET WITH NO
SIGNIFICANT WEATHER AND/OR OBSTRUCTIONS TO VISIBILITY.

KSZ001>006-013>018-027>032-041>047-230500-
NORTHWEST KANSAS

CITY           SKY/WX    TMP DP  RH WIND       PRES   REMARKS
GOODLAND       MOCLDY    61  48  62 SE26G37   29.77S
HAYS           CLOUDY   N/A N/A N/A S12       29.93R
HILL CITY      CLOUDY    59  47  64 S25G35    29.84R
RUSSELL        CLOUDY    64  31  28 SE21      29.87R
$$

KSZ061>065-074>080-084>089-230500-
SOUTHWEST KANSAS

CITY           SKY/WX    TMP DP  RH WIND       PRES   REMARKS
DODGE CITY     PTCLDY    64  32  30 SE22G32   29.86S
ELKHART          N/A     69  40  34 S24         N/A
GARDEN CITY    MOCLDY    65  47  52 SE16      29.83F
GREAT BEND     CLOUDY    63  30  29 SE23      29.87F
LIBERAL        PTCLDY    66  45  45 S22G28    29.85S
$$

KSZ066>073-081>083-090>101-230500-
SOUTHEAST KANSAS

CITY           SKY/WX    TMP DP  RH WIND       PRES   REMARKS
CHANUTE        PTCLDY    56  37  49 E7        29.99S
COFFEYVILLE    MOCLDY    55  38  52 E5        29.98S
HUTCHINSON     MOCLDY    61  30  31 SE13      29.92F
NEWTON         CLOUDY    55  30  38 SE9       29.98F
PARSONS        PTCLDY    51  38  60 CALM      30.00R
WICHITA INTL   MOCLDY    62  33  33 SE12      29.95F
WICHITA JABRA  MOCLDY    58  35  42 SE10      29.95F
WINFIELD       MOCLDY    60  37  42 SE7       29.98R
$$

KSZ007>012-019>026-033>040-048>060-102>105-230500-
NORTHEAST KANSAS

CITY           SKY/WX    TMP DP  RH WIND       PRES   REMARKS
CONCORDIA      PTCLDY    60  31  33 SE17      29.91F
EMPORIA        PTCLDY    54  36  50 SE7       29.98R
LAWRENCE       CLEAR     53  37  54 E7        30.00S
MANHATTAN      CLEAR     58  33  39 CALM      29.97S
OLATHE IND     CLEAR     55  34  45 SE6       30.01S
OLATHE EXE     CLEAR     56  33  42 SE5       30.01R
SALINA         CLOUDY    62  32  32 SE13      29.93S
TOPEKA BILLARD PTCLDY    58  39  49 CALM      29.99S
TOPEKA FORBES  CLOUDY    57  35  43 E6        29.99R
$$



USA.gov is the U.S. government's official web portal to all federal, state and local government web resources and services.